sat.trackr.live / text

‹ back to catalog

ONEWEB-0647

NORAD 56079 · 2023-043AK

PAYLOAD ACTIVE UNKNOWN

§ Identity

Operator
Country
UK
Launch date
2023-03-26
Launch site
SRILR
Launch vehicle
Mass (kg)
RCS (m²)

Purposes: comms

External: N2YO · Heavens-Above · Gunter

§ Orbital elements

Epoch: 2026-05-25T01:54:51.448896Z

Period
109.46 min
Inclination
87.8989°
Eccentricity
0.0001894
Mean motion
13.15547534 rev/d
Perigee alt
1,200.3 km
Apogee alt
1,203.2 km
Semi-major
7,579.9 km
B*
6.4417e-4
RAAN
263.8318°
Arg perigee
95.5327°
Mean anomaly
264.6019°
Rev number
15,338

§ Raw data

ONEWEB-06471 56079U 23043AK  26145.07976214  .00000255  00000+0  64417-3 0  99992 56079  87.8989 263.8318 0001894  95.5327 264.6019 13.15547534153388

JSON: /api/v1/satellites/56079 · /tle

For live sub-satellite position, see the globe view (requires WebGL).

§ Visibility from observer

Set your observer location to see the next 7 days of passes ≥ 10°. The values pass through the URL so the page stays shareable.

No JS? Fill the form by hand. The geolocation button needs JavaScript.